Vorticity
6 5 5 5 6 7 9 8 8 11 12 8 6 6 7 6 5 5 5 3 3 4 3 2 3 5 6 9 12 14 14 12 9 11 9 5 5 4 1 4 5 3 5 7 6 7 8 7 7 8 7 6 6 7 7 6 6 7 8 8 7 7 6 5 7 9 9 10 8 7 8 6 5 6 7 8 8 8 8 4 4 7 5 6 9 7 6
5 5 5 7 9 11 11 9 8 11 13 9 5 4 5 6 5 5 5 4 4 3 3 3 3 7 12 14 15 12 8 9 10 10 8 5 6 5 3 5 6 4 5 7 5 5 7 7 7 8 7 6 7 8 8 7 7 8 9 9 8 8 7 4 5 6 6 6 5 3 5 7 4 5 7 8 8 7 7 5 7 7 4 8 10 5 5
6 7 9 11 13 13 11 9 8 10 13 11 6 2 3 4 3 2 3 4 4 1 2 7 10 13 16 14 11 9 8 9 9 8 8 7 7 7 6 6 8 7 7 8 7 7 8 8 7 8 8 8 8 9 9 8 8 9 9 8 9 10 9 8 6 4 4 4 4 2 5 7 5 5 8 8 6 7 8 7 7 6 4 7 8 7 9
9 10 12 12 13 13 11 10 10 12 13 12 8 4 3 3 2 2 1 2 4 4 7 13 16 15 14 10 8 9 9 8 7 7 9 8 7 8 7 8 10 9 9 12 11 10 10 10 10 10 10 10 10 10 10 9 9 10 9 8 10 9 10 12 10 8 7 7 7 7 6 6 6 7 8 8 6 7 8 6 5 5 4 7 8 7 8
12 12 13 13 13 13 13 12 13 14 13 11 9 6 4 2 1 3 5 5 8 10 11 14 15 12 9 7 8 9 8 8 8 8 9 8 7 8 8 8 9 8 9 12 11 11 12 11 12 13 12 10 11 11 10 10 11 10 9 9 10 9 8 10 12 10 8 8 8 9 7 6 8 8 7 7 8 8 8 5 5 6 6 8 8 6 6
11 11 11 11 11 11 12 13 13 13 13 12 11 9 8 7 6 8 10 10 11 12 13 14 11 8 7 7 8 8 7 8 9 9 9 8 8 8 8 8 9 8 9 9 8 9 10 11 10 12 12 10 10 11 10 11 11 10 9 10 10 9 8 10 13 12 9 8 8 9 8 8 8 8 7 7 7 8 8 7 7 8 9 10 11 10 8
8 8 8 7 7 7 8 11 13 13 13 14 13 11 12 12 13 14 12 10 13 14 12 11 8 6 6 7 7 7 7 8 8 8 8 8 9 9 9 10 10 10 9 8 7 7 8 10 10 10 11 10 10 11 10 10 10 10 10 10 9 8 8 8 10 11 11 11 10 9 9 9 9 8 8 7 7 8 7 7 8 8 9 10 8 7 6
7 7 7 7 6 6 6 8 10 12 12 12 12 12 12 12 14 14 11 9 12 12 8 7 6 6 6 5 6 6 6 6 6 7 7 7 9 9 9 10 10 9 9 9 8 7 7 9 9 8 10 10 9 10 10 9 10 10 10 10 9 8 8 8 8 10 9 9 9 8 8 9 9 8 8 8 7 6 6 10 11 7 8 8 5 5 8
8 8 8 9 8 8 8 8 9 11 12 11 11 12 12 12 13 13 11 9 9 7 5 5 6 8 6 4 6 6 5 6 5 5 6 7 8 8 7 8 8 8 8 8 7 7 7 8 8 8 10 9 9 10 10 9 9 10 10 10 9 8 7 7 8 11 10 6 7 8 8 10 10 9 9 7 6 6 7 11 13 9 7 8 8 9 9
8 7 7 9 10 9 9 9 9 11 12 11 11 10 10 11 12 10 8 8 8 6 6 5 5 6 6 4 5 5 5 6 5 4 6 6 7 7 6 6 7 7 7 8 8 7 7 8 8 9 9 9 9 9 9 9 9 9 9 9 9 9 8 6 5 8 11 10 10 9 7 8 9 9 8 6 6 6 7 10 11 7 5 8 9 7 3
7 7 7 7 8 8 8 9 10 11 12 12 11 10 8 8 11 9 5 6 7 6 6 6 3 4 4 4 4 5 5 5 5 4 5 6 6 7 6 6 7 6 7 8 7 7 8 8 9 9 9 9 10 9 9 9 8 9 9 9 9 9 8 8 5 4 8 10 12 12 8 8 10 9 8 8 7 5 7 13 12 5 6 9 5 1 3
5 5 6 5 5 5 5 6 8 9 11 14 13 11 8 6 8 7 5 4 5 4 5 5 3 3 4 3 3 4 5 5 5 4 5 6 7 7 6 6 7 6 7 8 7 6 8 9 9 10 8 9 11 10 9 9 9 10 9 9 10 8 8 8 6 5 6 7 9 10 7 8 11 10 7 9 9 5 6 13 11 6 7 7 2 5 10
4 3 4 4 4 4 3 3 4 5 8 12 14 13 10 7 6 5 4 4 5 4 4 4 3 3 3 3 3 4 5 5 4 4 5 6 6 7 6 6 7 7 7 8 7 6 8 9 10 11 8 8 12 11 9 10 11 10 10 10 9 8 8 8 6 6 7 7 9 10 7 6 8 9 8 8 9 7 3 8 12 9 6 6 7 11 11
4 3 3 3 3 4 3 2 2 2 3 6 10 11 10 8 8 6 3 3 6 6 4 4 3 3 4 3 3 4 5 4 4 5 6 6 6 7 6 5 6 7 6 8 7 6 7 8 9 10 9 8 11 12 10 11 12 11 11 10 9 8 8 7 5 7 7 5 8 11 10 8 7 6 7 8 9 7 3 6 11 8 6 10 10 7 4
4 4 4 3 3 3 3 2 2 2 2 3 5 8 9 7 8 8 5 3 5 6 6 5 4 4 4 3 3 4 5 4 4 4 6 7 6 6 6 5 6 6 5 7 7 5 6 8 9 10 9 9 10 10 10 11 12 11 11 11 10 10 9 7 6 8 8 6 6 7 9 10 8 7 9 9 8 8 6 7 9 8 8 8 5 2 3
4 3 3 3 3 2 2 2 2 2 2 2 2 4 6 6 6 7 6 4 4 5 7 7 5 4 4 3 4 5 4 4 4 5 6 7 6 6 5 5 6 5 5 6 7 6 7 8 9 11 10 9 10 9 9 10 10 10 12 12 12 11 9 9 8 8 9 8 8 9 8 7 7 9 10 10 9 9 7 5 7 10 9 5 3 5 5
4 3 3 2 2 2 2 2 2 2 2 2 2 3 4 5 5 6 5 5 4 4 6 7 5 4 4 3 4 5 4 3 4 5 6 6 6 6 5 5 5 5 5 6 6 6 7 6 8 12 11 10 10 9 9 10 10 10 10 10 12 12 9 9 9 8 8 8 9 13 12 5 5 9 9 9 10 9 7 6 8 10 8 5 7 7 4
5 5 4 3 3 2 3 2 2 3 3 2 2 3 2 4 5 5 4 5 4 4 6 7 5 4 3 4 5 5 4 4 5 6 7 7 6 5 5 5 5 5 5 6 5 6 8 7 7 10 10 9 9 9 9 10 11 10 9 9 11 11 9 11 10 8 8 9 9 14 14 8 7 10 9 7 7 7 8 10 10 7 5 7 9 6 2
6 6 6 6 6 5 5 5 4 4 4 3 3 3 2 4 5 4 4 5 4 3 6 7 4 4 4 5 5 5 3 4 5 6 7 7 6 6 5 5 5 5 4 5 5 6 8 8 6 8 10 9 8 8 9 11 11 9 9 12 12 9 8 10 10 8 9 10 9 10 12 10 8 10 10 8 6 6 8 10 8 7 6 8 8 5 3
5 6 6 7 9 9 8 9 8 7 5 4 3 3 3 3 4 5 5 5 4 3 6 6 4 4 5 5 5 4 3 4 6 7 7 7 6 6 6 4 5 5 4 6 6 6 8 8 6 8 10 8 7 7 7 11 12 9 9 12 12 10 9 8 8 10 11 10 9 10 10 8 7 8 10 9 7 8 7 5 7 9 8 7 7 5 4
3 4 6 7 8 10 9 10 11 8 6 5 3 4 5 4 5 6 5 4 3 4 6 6 4 5 6 5 5 4 3 5 7 7 8 7 6 7 6 4 6 6 5 6 7 5 7 8 7 8 9 6 7 8 6 8 11 9 10 13 11 11 12 8 7 12 12 10 12 12 11 9 8 9 11 10 11 11 7 5 8 10 8 7 6 5 6
4 3 5 6 8 9 9 11 11 9 7 7 6 6 6 5 5 5 4 4 5 5 5 5 5 6 6 5 5 4 4 6 7 7 8 7 7 7 6 4 5 5 4 6 6 5 7 8 7 9 9 5 6 8 7 8 11 8 10 14 11 9 12 10 9 11 11 11 12 13 14 11 7 8 11 9 9 9 7 9 11 10 8 7 5 5 6
5 4 4 5 6 8 9 11 12 10 9 8 7 7 6 6 5 5 5 6 6 5 5 6 6 6 6 5 4 4 5 7 7 7 8 7 7 6 5 4 4 5 5 5 5 5 6 7 6 8 9 5 6 8 7 9 11 8 9 13 12 10 11 10 9 10 9 10 11 13 16 13 8 9 11 7 6 9 8 9 11 9 9 7 5 6 6
7 5 4 4 5 6 8 10 10 9 9 9 8 7 6 6 6 6 6 6 5 5 6 6 6 6 5 4 4 5 6 7 7 7 7 7 7 6 4 3 4 5 4 4 4 5 6 6 6 8 7 6 7 9 8 9 11 9 9 10 11 11 11 10 11 11 9 9 10 11 14 14 11 11 10 6 8 12 11 9 10 9 8 7 7 7 5
9 7 5 5 4 4 6 7 7 7 9 9 8 7 7 7 7 7 7 6 5 6 7 6 6 6 5 4 4 5 7 8 7 7 7 7 6 5 4 4 4 4 4 4 5 5 5 6 6 6 7 7 8 9 7 7 9 9 10 9 8 10 10 9 11 13 9 7 10 12 15 15 10 8 8 6 7 11 12 11 10 8 6 7 9 9 5
10 9 7 5 4 3 4 5 5 7 10 10 9 8 8 8 7 7 6 5 5 6 6 6 6 5 4 4 5 6 8 8 7 7 7 7 7 5 4 4 4 4 4 5 5 4 5 6 5 5 6 8 8 8 6 7 9 9 9 9 8 9 11 9 9 12 10 9 11 12 13 14 12 9 9 7 6 9 12 10 10 8 6 6 8 8 7
10 10 9 7 5 4 5 4 5 8 10 10 9 9 8 8 7 6 6 6 6 6 6 6 6 4 4 5 6 7 8 8 7 7 7 7 7 5 4 3 4 4 4 5 5 4 5 6 5 5 6 7 8 8 6 7 9 8 8 10 9 9 10 9 9 12 12 11 12 10 9 12 13 10 8 7 7 9 10 9 9 10 8 6 6 7 7
9 9 10 9 7 6 5 4 5 8 10 10 9 8 7 7 7 6 6 6 6 6 6 5 5 4 4 5 7 8 8 7 7 7 7 7 6 5 3 3 3 4 5 5 5 5 5 6 5 5 6 6 7 7 6 7 9 8 8 9 10 9 10 9 9 12 12 11 12 11 10 10 10 10 10 8 6 7 9 10 11 11 8 7 6 6 8
8 7 8 9 8 7 6 5 5 8 9 8 9 8 8 8 7 6 6 6 5 6 6 5 4 4 5 6 8 8 8 7 8 8 7 7 7 5 4 4 3 4 5 6 5 4 5 5 5 5 7 6 6 7 6 7 9 8 7 9 9 9 10 10 9 10 11 11 12 13 12 10 10 11 11 7 5 6 9 12 12 10 9 9 6 6 9
9 7 6 8 8 6 5 4 6 8 8 7 8 9 8 8 7 5 5 6 6 5 5 4 4 5 6 7 8 8 8 8 8 8 7 7 6 4 4 4 3 4 6 6 5 4 5 5 5 6 7 7 7 8 7 7 8 8 8 9 10 9 10 11 10 10 10 10 13 14 13 10 10 11 9 7 6 7 10 11 11 10 10 9 6 8 11
11 8 6 7 7 6 5 6 8 9 7 7 9 9 8 7 7 6 6 6 6 5 4 4 5 6 8 8 8 8 8 8 8 8 8 7 6 4 4 4 4 4 6 5 4 4 5 5 4 6 7 7 7 8 7 7 9 9 8 9 10 9 10 11 11 11 11 10 11 14 14 12 9 8 7 8 8 8 9 10 10 10 9 8 9 11 10
13 7 5 6 7 6 6 9 10 7 6 7 9 8 7 7 6 5 6 6 5 4 4 4 6 8 9 8 8 8 8 9 9 8 7 6 5 5 5 4 4 5 6 5 3 4 4 4 3 5 6 6 7 8 7 8 9 8 8 9 9 9 11 12 11 11 11 10 10 12 14 14 10 6 6 8 8 8 9 9 9 9 9 9 10 11 10
11 5 3 5 7 6 8 10 8 5 5 8 8 7 7 7 6 6 6 5 4 3 4 6 7 9 9 8 8 8 9 9 9 8 7 6 4 5 5 4 3 6 6 4 4 4 5 4 4 4 5 5 6 7 7 8 8 8 9 9 8 9 11 11 11 12 11 11 12 12 11 11 9 6 7 8 7 7 8 9 9 9 9 10 10 10 11
8 4 4 6 7 8 10 9 5 4 6 8 8 8 8 6 6 6 5 4 3 4 5 7 9 10 9 8 8 8 9 9 9 7 6 5 4 5 5 3 4 6 6 4 4 5 5 4 3 4 4 5 6 6 7 8 8 8 9 9 8 9 10 10 11 13 12 12 12 12 11 10 8 7 8 7 6 7 8 9 9 8 9 11 10 10 14
5 4 6 8 9 10 9 6 4 5 7 7 8 9 7 6 7 6 4 3 4 5 6 8 10 10 9 8 8 8 9 9 8 7 6 5 4 5 4 3 4 6 5 3 5 5 5 4 3 4 4 5 6 7 8 8 7 7 8 9 9 9 10 10 11 13 13 12 11 11 11 10 7 6 8 7 6 7 9 9 10 9 9 10 11 12 19
7 7 9 10 10 8 7 6 6 7 7 8 9 9 7 7 7 4 3 4 5 6 7 9 10 9 8 8 9 9 9 9 8 6 6 4 4 4 3 2 5 5 4 4 5 5 4 4 3 4 5 5 6 7 7 7 8 8 8 9 9 9 10 10 10 12 13 12 11 10 10 9 7 6 7 7 7 8 8 9 9 9 9 11 13 16 21
10 10 10 9 8 7 6 6 7 8 8 9 10 9 7 7 5 3 4 5 5 6 9 10 9 8 8 10 10 9 9 9 7 6 5 4 3 4 3 3 5 4 3 4 5 4 3 4 3 4 5 5 6 7 7 7 8 8 7 8 9 10 10 9 9 11 13 12 11 10 8 8 8 7 7 7 8 8 9 9 10 10 11 14 15 19 22
9 9 8 7 6 6 6 7 8 9 9 10 10 8 7 6 4 3 5 5 6 8 10 10 10 9 9 10 10 9 8 8 6 6 5 4 4 4 3 3 5 4 3 4 5 3 2 3 4 4 5 5 6 8 8 8 8 7 7 8 9 10 10 9 9 12 13 12 11 10 7 8 9 8 6 6 7 9 10 10 10 11 14 16 18 20 22
7 7 6 6 5 5 6 8 10 11 10 10 10 9 7 5 4 4 5 6 7 10 11 10 10 9 10 10 9 8 9 7 6 6 6 4 4 4 3 4 5 4 3 5 5 2 2 4 4 4 5 6 7 8 8 9 8 7 7 9 9 10 10 9 10 12 12 11 11 9 7 9 9 7 5 4 5 8 11 11 11 14 16 19 21 21 21
6 5 5 5 5 6 8 10 11 11 11 11 10 8 6 5 4 5 6 7 8 10 10 10 10 10 10 9 9 8 8 7 6 6 5 5 5 5 3 4 5 4 3 5 4 2 3 4 5 5 5 6 7 8 8 8 8 7 8 9 9 9 9 10 12 12 11 11 10 8 8 10 9 6 5 4 4 8 10 10 12 17 19 20 22 21 20
7 6 6 6 6 8 10 11 12 12 11 11 9 6 5 5 5 5 6 8 9 9 9 9 10 10 9 8 9 8 7 7 6 6 5 5 5 4 4 5 5 4 4 5 3 3 4 5 4 5 6 6 8 9 9 8 8 7 8 9 9 9 9 11 12 11 10 10 9 8 9 11 9 5 5 5 5 8 10 10 14 19 20 22 23 21 18
9 9 8 9 10 12 12 12 13 12 11 9 8 6 5 6 6 5 6 7 7 8 9 10 11 9 8 8 9 8 7 7 6 5 4 5 5 4 5 5 4 4 5 4 3 4 5 5 5 5 6 7 9 9 8 8 8 8 8 9 9 9 10 11 12 11 10 9 8 8 10 10 8 6 7 5 4 7 9 12 16 19 20 23 24 20 17
11 12 11 11 12 13 12 12 13 11 8 8 7 6 6 5 5 4 6 7 7 9 11 12 11 9 8 8 9 8 7 7 6 5 4 5 5 5 6 5 4 4 5 4 4 5 5 4 5 6 6 8 9 9 8 8 8 8 9 9 8 9 10 12 12 11 9 8 8 9 10 8 7 7 7 6 5 7 9 14 19 21 20 22 24 21 18
12 12 11 10 12 13 12 12 12 10 7 7 8 6 4 4 4 5 6 8 9 10 12 11 9 8 8 8 8 8 7 7 6 5 4 5 6 6 6 5 4 4 4 4 5 6 5 5 6 6 7 8 9 9 9 9 8 8 10 9 8 9 11 11 11 10 8 7 8 9 9 7 7 7 7 7 7 8 10 15 20 21 20 22 22 22 21
11 11 10 10 12 13 12 11 11 10 8 8 7 5 3 4 5 5 7 9 10 12 12 11 9 8 8 8 8 7 7 7 6 4 3 4 6 6 5 5 5 4 4 4 5 4 4 5 6 7 8 9 9 9 9 8 8 9 10 9 8 10 11 11 10 9 7 7 9 8 7 7 7 7 8 8 8 9 13 18 20 20 20 22 22 21 21
10 11 11 12 13 14 12 10 10 10 8 6 4 3 3 4 5 6 8 10 12 12 11 9 7 7 7 8 8 8 7 7 6 4 3 5 7 5 4 4 4 4 3 4 4 5 5 6 6 7 8 9 9 9 9 9 8 10 10 8 8 10 11 11 9 8 7 8 9 7 6 7 6 6 7 9 9 10 14 20 21 20 21 22 21 19 19
12 13 13 13 13 13 11 10 9 7 5 4 4 3 4 5 6 7 9 11 12 12 10 8 7 7 7 8 9 9 8 7 5 2 3 6 7 5 3 3 4 3 3 3 4 5 5 6 7 8 8 8 9 9 9 9 9 10 9 9 9 10 11 10 9 8 8 8 7 6 6 6 6 6 7 9 11 12 16 21 23 22 22 22 20 18 16
14 14 14 13 12 11 10 9 7 6 4 4 4 4 5 6 7 8 11 11 11 10 8 6 6 7 7 8 10 10 9 7 3 1 3 7 6 4 3 4 3 3 4 5 5 6 6 6 7 8 8 8 9 9 9 9 10 10 9 9 9 10 10 10 9 9 8 7 6 6 6 6 6 5 5 8 11 15 19 22 23 23 22 21 19 17 14
14 14 13 11 10 10 8 7 6 5 5 5 5 5 5 6 8 9 10 10 9 8 7 6 6 8 9 10 11 11 9 5 1 0 4 8 6 4 4 4 3 3 4 5 5 6 7 7 8 8 8 7 8 9 9 9 10 9 9 9 9 10 10 10 9 9 8 6 5 6 6 6 5 4 4 7 13 19 22 22 23 25 24 20 17 16 14
13 12 12 10 9 8 7 6 5 5 5 5 4 4 5 7 9 10 10 9 8 7 7 7 8 10 10 11 11 11 8 3 1 2 6 7 6 5 5 4 2 3 5 5 5 6 7 7 8 8 8 8 8 9 9 9 9 9 9 10 10 10 10 10 9 8 7 5 6 6 6 5 5 4 5 8 14 19 23 24 24 26 25 20 15 14 13
12 11 10 9 8 7 6 5 5 5 5 5 4 5 6 8 9 10 9 8 8 7 7 7 9 11 11 11 12 10 6 1 1 4 6 7 6 6 4 2 2 4 7 6 6 6 7 8 8 8 8 8 8 9 9 9 9 9 9 10 11 11 10 9 8 7 7 6 6 6 6 4 4 4 6 10 14 18 22 25 26 27 25 20 15 13 11
12 10 9 8 7 6 6 5 5 5 5 4 5 6 7 9 9 9 8 8 7 6 6 7 10 13 14 13 11 7 4 2 3 5 6 6 6 5 3 3 4 5 6 5 6 6 7 8 8 8 8 8 8 8 9 10 9 9 9 11 11 11 9 7 7 7 7 6 5 5 5 5 4 4 7 11 15 18 21 24 27 27 24 19 16 13 10
Height
5825 5825 5826 5826 5826 5826 5826 5826 5826 5826 5827 5827 5828 5828 5828 5828 5828 5828 5828 5827 5826 5825 5824 5823 5822 5821 5819 5817 5815 5813 5811 5810 5808 5806 5804 5801 5799 5796 5793 5790 5787 5784 5782 5779 5776 5772 5769 5766 5762 5759 5755 5752 5748 5744 5740 5736 5732 5728 5724 5719 5715 5711 5707 5702 5698 5694 5689 5684 5678 5673 5667 5660 5654 5649 5643 5636 5629 5623 5618 5610 5602 5594 5586 5580 5571 5561 5561
5827 5827 5828 5828 5828 5828 5828 5828 5828 5828 5828 5829 5829 5830 5829 5829 5829 5829 5828 5827 5827 5826 5825 5823 5822 5821 5819 5817 5815 5813 5811 5810 5808 5806 5803 5801 5798 5796 5793 5790 5787 5784 5781 5778 5775 5772 5768 5765 5762 5758 5754 5751 5747 5743 5739 5735 5731 5726 5721 5717 5712 5707 5703 5698 5693 5689 5685 5681 5675 5669 5664 5657 5648 5642 5637 5631 5624 5618 5613 5607 5598 5590 5581 5574 5564 5554 5552
5829 5829 5830 5830 5830 5830 5830 5830 5830 5830 5830 5830 5831 5831 5830 5830 5830 5829 5829 5828 5827 5826 5825 5823 5822 5820 5819 5817 5815 5814 5812 5810 5808 5805 5803 5801 5798 5795 5793 5790 5787 5784 5781 5777 5774 5771 5767 5764 5761 5757 5753 5749 5745 5741 5737 5733 5728 5724 5719 5714 5709 5703 5698 5693 5687 5682 5676 5672 5666 5660 5656 5652 5645 5638 5632 5627 5620 5612 5607 5601 5592 5583 5576 5571 5561 5547 5543
5831 5831 5831 5831 5831 5831 5831 5831 5831 5831 5831 5831 5831 5831 5831 5831 5830 5830 5829 5828 5827 5826 5825 5823 5822 5820 5819 5817 5815 5814 5812 5810 5808 5805 5803 5800 5798 5795 5792 5789 5786 5783 5780 5777 5773 5770 5766 5762 5759 5755 5751 5747 5743 5739 5735 5730 5725 5721 5716 5711 5706 5700 5695 5690 5685 5678 5672 5667 5662 5656 5651 5646 5641 5635 5628 5622 5615 5607 5601 5595 5587 5578 5569 5567 5560 5544 5533
5833 5833 5833 5833 5832 5832 5832 5832 5832 5832 5832 5832 5832 5832 5832 5831 5831 5831 5830 5829 5827 5826 5825 5823 5822 5821 5819 5818 5816 5814 5812 5810 5807 5805 5802 5800 5797 5794 5792 5789 5785 5782 5779 5775 5772 5768 5765 5761 5757 5753 5749 5744 5741 5736 5732 5727 5723 5718 5713 5708 5703 5697 5692 5687 5683 5677 5671 5665 5659 5654 5649 5644 5639 5632 5625 5620 5613 5604 5597 5590 5583 5574 5564 5559 5556 5546 5532
5835 5835 5835 5834 5834 5834 5834 5833 5833 5833 5833 5833 5833 5833 5832 5832 5832 5831 5830 5829 5828 5826 5825 5824 5823 5821 5820 5818 5816 5814 5812 5810 5807 5805 5802 5799 5797 5794 5791 5788 5784 5781 5778 5774 5770 5767 5763 5759 5755 5751 5746 5742 5738 5733 5729 5725 5720 5715 5710 5706 5700 5696 5690 5685 5681 5676 5669 5663 5657 5651 5646 5640 5635 5629 5622 5617 5610 5602 5595 5588 5578 5569 5559 5549 5544 5539 5529
5837 5837 5837 5836 5836 5835 5835 5835 5835 5835 5834 5834 5834 5833 5833 5833 5832 5831 5830 5829 5828 5827 5826 5825 5823 5822 5820 5818 5816 5814 5812 5809 5807 5804 5802 5799 5796 5793 5790 5787 5783 5780 5776 5772 5769 5765 5761 5757 5752 5748 5744 5740 5735 5731 5726 5722 5717 5712 5707 5703 5698 5693 5688 5682 5678 5673 5668 5662 5655 5649 5644 5638 5631 5625 5619 5612 5605 5596 5590 5585 5574 5562 5554 5546 5537 5531 5526
5839 5839 5838 5838 5838 5837 5837 5837 5837 5836 5835 5835 5834 5834 5834 5833 5833 5832 5831 5830 5829 5828 5827 5825 5824 5822 5820 5818 5816 5814 5812 5809 5807 5804 5801 5798 5795 5792 5789 5786 5782 5779 5775 5771 5767 5763 5759 5755 5750 5746 5742 5737 5733 5728 5723 5719 5714 5709 5704 5700 5695 5689 5684 5679 5673 5669 5665 5659 5652 5644 5638 5633 5627 5620 5614 5607 5600 5591 5583 5579 5570 5558 5549 5544 5535 5526 5520
5841 5841 5840 5840 5840 5839 5839 5838 5838 5837 5836 5835 5835 5835 5835 5834 5833 5832 5831 5831 5830 5829 5827 5826 5824 5822 5820 5818 5816 5814 5811 5809 5806 5804 5801 5797 5794 5791 5788 5785 5781 5778 5774 5770 5766 5762 5758 5753 5749 5744 5740 5735 5730 5726 5721 5716 5711 5706 5701 5696 5691 5685 5680 5675 5670 5665 5660 5654 5647 5640 5633 5628 5623 5616 5609 5602 5596 5588 5578 5571 5563 5550 5540 5534 5527 5517 5507
5843 5842 5842 5842 5841 5841 5840 5840 5839 5839 5838 5837 5836 5836 5836 5835 5834 5833 5832 5831 5830 5829 5828 5826 5824 5822 5820 5818 5816 5814 5811 5808 5806 5803 5800 5797 5793 5790 5787 5783 5780 5776 5773 5769 5765 5761 5756 5752 5747 5743 5738 5733 5728 5723 5719 5713 5708 5703 5698 5693 5688 5682 5676 5672 5666 5661 5656 5650 5643 5636 5629 5623 5617 5609 5603 5597 5590 5583 5575 5568 5560 5547 5535 5526 5517 5509 5501
5844 5844 5844 5843 5843 5843 5842 5842 5841 5840 5839 5839 5838 5838 5837 5836 5835 5834 5833 5832 5831 5829 5828 5826 5824 5822 5820 5818 5816 5813 5811 5808 5805 5802 5799 5796 5792 5789 5786 5782 5779 5775 5771 5767 5763 5759 5755 5750 5746 5741 5736 5731 5726 5721 5716 5711 5705 5700 5695 5689 5684 5679 5673 5668 5662 5656 5652 5647 5641 5634 5625 5618 5611 5604 5598 5591 5584 5576 5570 5564 5556 5545 5537 5528 5519 5512 5504
5846 5846 5846 5845 5845 5845 5844 5844 5843 5842 5841 5841 5840 5839 5838 5837 5836 5835 5834 5832 5831 5830 5828 5826 5824 5822 5820 5818 5816 5813 5810 5807 5804 5801 5798 5795 5791 5788 5785 5781 5777 5774 5770 5766 5762 5757 5753 5749 5744 5740 5734 5729 5725 5719 5714 5708 5703 5697 5692 5686 5681 5676 5670 5664 5659 5653 5647 5642 5636 5629 5621 5614 5608 5601 5595 5588 5580 5571 5565 5563 5555 5543 5534 5529 5520 5511 5501
5848 5848 5848 5847 5847 5847 5846 5845 5844 5843 5843 5843 5842 5840 5839 5838 5837 5836 5834 5833 5832 5830 5828 5826 5825 5822 5820 5818 5815 5813 5810 5806 5803 5800 5797 5794 5790 5787 5784 5780 5776 5772 5768 5764 5760 5756 5752 5747 5742 5738 5733 5727 5723 5717 5711 5706 5700 5694 5689 5683 5678 5672 5666 5660 5654 5648 5642 5636 5629 5621 5614 5608 5603 5597 5589 5583 5576 5566 5557 5555 5551 5539 5527 5518 5508 5498 5488
5850 5849 5849 5849 5849 5848 5847 5846 5846 5845 5844 5844 5843 5841 5840 5839 5838 5836 5835 5833 5832 5830 5828 5826 5825 5822 5820 5818 5815 5812 5809 5806 5803 5800 5796 5793 5789 5786 5782 5779 5775 5771 5767 5763 5759 5754 5749 5745 5741 5736 5731 5726 5720 5715 5709 5703 5698 5692 5686 5680 5674 5669 5662 5656 5649 5643 5636 5630 5625 5619 5610 5602 5595 5588 5581 5573 5567 5557 5545 5538 5533 5525 5514 5503 5493 5486 5480
5851 5851 5850 5850 5850 5849 5848 5848 5847 5846 5845 5845 5843 5842 5841 5839 5838 5836 5835 5834 5832 5830 5828 5826 5824 5822 5820 5817 5814 5811 5808 5805 5802 5799 5795 5792 5788 5785 5781 5778 5774 5770 5766 5762 5757 5752 5747 5743 5738 5733 5728 5722 5716 5711 5706 5700 5695 5689 5683 5677 5671 5665 5659 5652 5645 5639 5633 5626 5619 5613 5605 5596 5588 5581 5574 5566 5559 5551 5542 5533 5525 5516 5507 5498 5491 5484 5477
5852 5852 5852 5851 5851 5850 5849 5849 5848 5847 5846 5845 5844 5843 5841 5839 5838 5837 5835 5834 5832 5830 5828 5826 5824 5822 5819 5817 5814 5811 5807 5804 5801 5798 5795 5791 5788 5784 5780 5777 5773 5769 5764 5760 5756 5751 5745 5740 5736 5730 5725 5719 5713 5708 5702 5697 5692 5687 5681 5675 5668 5662 5656 5650 5642 5636 5629 5622 5614 5606 5598 5592 5585 5578 5570 5563 5555 5546 5537 5531 5526 5518 5507 5499 5490 5481 5471
5853 5853 5853 5852 5852 5851 5850 5849 5849 5848 5846 5845 5844 5843 5841 5839 5838 5837 5835 5833 5831 5829 5827 5826 5824 5821 5819 5816 5813 5810 5807 5804 5800 5797 5793 5790 5786 5783 5779 5775 5771 5767 5763 5758 5754 5749 5744 5738 5734 5729 5723 5717 5711 5706 5700 5694 5689 5683 5678 5672 5667 5660 5653 5647 5640 5632 5625 5618 5612 5604 5595 5586 5579 5574 5568 5561 5554 5544 5533 5524 5518 5512 5503 5492 5481 5470 5460
5854 5853 5853 5853 5852 5851 5850 5850 5849 5848 5847 5846 5844 5843 5841 5840 5839 5837 5835 5833 5831 5829 5827 5826 5823 5821 5818 5815 5812 5809 5806 5803 5800 5796 5793 5789 5786 5782 5778 5774 5770 5766 5761 5757 5752 5747 5742 5737 5731 5726 5721 5716 5710 5704 5698 5692 5686 5680 5674 5668 5663 5657 5651 5644 5638 5630 5622 5615 5608 5601 5593 5584 5575 5567 5560 5554 5548 5541 5532 5519 5507 5499 5492 5483 5472 5461 5451
5854 5854 5853 5853 5852 5851 5850 5850 5849 5848 5847 5846 5844 5843 5841 5840 5838 5837 5835 5833 5831 5829 5827 5825 5823 5820 5818 5815 5812 5809 5805 5802 5799 5795 5792 5788 5784 5781 5777 5773 5769 5764 5760 5755 5750 5745 5741 5736 5730 5725 5719 5714 5708 5702 5696 5690 5684 5677 5671 5664 5658 5652 5646 5639 5633 5626 5618 5610 5604 5597 5589 5580 5571 5562 5554 5547 5540 5533 5525 5516 5505 5493 5484 5475 5467 5457 5447
5854 5854 5853 5853 5852 5851 5850 5850 5849 5848 5846 5845 5844 5842 5841 5839 5838 5837 5835 5833 5830 5828 5827 5825 5822 5819 5817 5814 5811 5808 5805 5802 5798 5795 5791 5787 5783 5780 5776 5771 5767 5763 5758 5753 5749 5743 5738 5734 5728 5723 5717 5712 5706 5700 5694 5689 5682 5675 5668 5661 5655 5648 5641 5634 5628 5620 5612 5604 5596 5588 5580 5571 5563 5556 5548 5540 5531 5521 5513 5507 5500 5490 5480 5471 5463 5454 5444
5854 5854 5853 5853 5852 5851 5850 5849 5848 5847 5846 5844 5843 5842 5840 5839 5838 5836 5834 5832 5830 5828 5826 5824 5821 5819 5816 5813 5810 5807 5804 5801 5797 5794 5790 5786 5782 5778 5774 5769 5765 5761 5756 5751 5747 5742 5737 5732 5727 5721 5716 5710 5704 5698 5692 5686 5680 5674 5667 5660 5653 5645 5638 5631 5624 5616 5608 5599 5590 5583 5577 5570 5561 5553 5544 5535 5526 5516 5507 5499 5492 5484 5475 5466 5457 5449 5440
5854 5854 5853 5852 5852 5851 5850 5849 5848 5847 5845 5844 5843 5841 5840 5839 5837 5835 5834 5832 5830 5828 5825 5823 5821 5818 5815 5812 5809 5806 5803 5800 5796 5793 5789 5785 5781 5777 5773 5768 5764 5759 5754 5750 5745 5740 5735 5730 5725 5720 5714 5708 5702 5696 5690 5683 5677 5670 5664 5657 5650 5642 5635 5629 5622 5614 5607 5600 5592 5584 5577 5569 5560 5552 5544 5536 5528 5520 5510 5499 5489 5479 5470 5460 5451 5443 5435
5854 5853 5853 5852 5851 5850 5849 5849 5847 5846 5845 5843 5842 5841 5839 5838 5836 5835 5833 5832 5829 5827 5825 5822 5820 5817 5815 5812 5808 5805 5802 5799 5795 5792 5788 5784 5780 5776 5772 5767 5763 5758 5753 5748 5743 5738 5733 5728 5723 5717 5712 5706 5700 5694 5688 5681 5674 5668 5661 5655 5648 5640 5632 5625 5619 5613 5606 5599 5591 5582 5574 5565 5556 5547 5538 5530 5523 5515 5506 5497 5488 5479 5468 5457 5447 5438 5429
5853 5853 5852 5852 5851 5850 5849 5848 5847 5845 5844 5843 5842 5840 5839 5837 5836 5834 5833 5831 5828 5826 5824 5822 5819 5816 5813 5810 5807 5804 5801 5798 5794 5791 5787 5783 5779 5775 5770 5766 5762 5757 5752 5747 5742 5737 5732 5727 5721 5716 5710 5704 5698 5691 5685 5678 5672 5665 5658 5651 5644 5637 5629 5622 5615 5608 5601 5594 5587 5579 5573 5565 5556 5547 5538 5530 5521 5513 5503 5493 5485 5476 5466 5455 5445 5434 5425
5852 5852 5851 5851 5850 5849 5848 5847 5846 5845 5844 5843 5841 5840 5838 5837 5835 5833 5832 5830 5827 5825 5823 5821 5818 5815 5812 5809 5806 5803 5800 5797 5793 5789 5786 5781 5777 5773 5769 5765 5761 5756 5751 5746 5741 5736 5731 5725 5720 5714 5709 5703 5696 5689 5682 5675 5669 5662 5655 5647 5640 5633 5626 5618 5611 5604 5597 5590 5583 5576 5569 5561 5553 5545 5537 5528 5519 5511 5502 5491 5481 5472 5464 5456 5446 5435 5424
5852 5851 5851 5850 5850 5849 5848 5847 5845 5844 5843 5842 5840 5839 5838 5836 5834 5832 5830 5828 5826 5824 5822 5820 5817 5814 5811 5808 5805 5802 5799 5795 5792 5788 5784 5780 5776 5772 5768 5764 5759 5755 5750 5745 5740 5735 5730 5724 5718 5713 5707 5701 5694 5687 5680 5674 5666 5659 5652 5645 5637 5630 5623 5614 5606 5600 5593 5585 5578 5571 5564 5558 5550 5540 5531 5521 5512 5505 5497 5487 5478 5469 5460 5452 5444 5435 5423
5851 5850 5850 5849 5849 5848 5847 5846 5845 5844 5842 5841 5839 5838 5836 5835 5833 5831 5829 5827 5825 5823 5821 5818 5816 5813 5810 5807 5804 5801 5798 5794 5791 5787 5783 5779 5775 5771 5767 5763 5758 5754 5749 5744 5739 5734 5728 5723 5717 5711 5705 5699 5693 5685 5678 5672 5664 5656 5649 5642 5634 5627 5619 5611 5602 5594 5586 5578 5570 5563 5556 5550 5543 5534 5526 5516 5507 5498 5489 5481 5472 5462 5451 5442 5433 5425 5416
5850 5849 5849 5848 5848 5847 5846 5845 5844 5842 5841 5840 5838 5837 5835 5834 5832 5830 5828 5826 5824 5822 5820 5817 5815 5812 5809 5806 5803 5800 5797 5793 5790 5786 5782 5778 5774 5770 5766 5761 5757 5752 5747 5742 5737 5732 5727 5721 5715 5710 5704 5697 5690 5684 5676 5670 5663 5654 5646 5640 5632 5623 5616 5608 5599 5590 5582 5573 5566 5558 5550 5543 5537 5530 5521 5512 5502 5493 5484 5474 5463 5453 5443 5432 5422 5413 5405
5848 5848 5847 5847 5846 5846 5845 5843 5842 5841 5840 5839 5837 5836 5834 5833 5831 5829 5827 5825 5823 5821 5819 5816 5814 5811 5808 5805 5802 5799 5796 5792 5789 5785 5781 5777 5773 5769 5764 5760 5755 5751 5746 5741 5735 5730 5725 5720 5713 5708 5702 5695 5688 5682 5674 5667 5660 5652 5644 5636 5629 5621 5613 5605 5596 5588 5581 5573 5565 5556 5548 5539 5532 5524 5515 5506 5496 5488 5478 5467 5457 5448 5438 5427 5416 5407 5397
5847 5847 5846 5845 5845 5844 5843 5842 5841 5840 5839 5837 5836 5835 5833 5832 5830 5828 5826 5824 5822 5820 5818 5815 5812 5809 5806 5803 5800 5797 5794 5791 5787 5784 5779 5775 5771 5767 5763 5758 5754 5749 5744 5739 5734 5729 5723 5718 5712 5706 5699 5693 5685 5679 5672 5664 5657 5649 5641 5633 5625 5617 5610 5602 5593 5585 5578 5571 5563 5554 5545 5537 5529 5521 5513 5503 5492 5482 5473 5463 5453 5444 5434 5423 5412 5402 5393
5845 5845 5845 5844 5844 5843 5842 5841 5840 5839 5838 5836 5835 5834 5832 5831 5829 5827 5825 5823 5821 5819 5816 5814 5811 5808 5805 5802 5799 5796 5793 5789 5786 5782 5778 5774 5770 5766 5761 5757 5752 5748 5743 5738 5732 5727 5721 5716 5710 5704 5697 5690 5683 5675 5668 5660 5653 5646 5638 5630 5622 5614 5606 5598 5590 5581 5573 5565 5559 5552 5544 5534 5525 5518 5510 5501 5490 5480 5470 5461 5451 5441 5431 5421 5409 5398 5389
5843 5843 5843 5843 5842 5842 5841 5840 5839 5838 5836 5835 5834 5832 5831 5829 5828 5826 5824 5822 5820 5818 5815 5812 5809 5806 5803 5800 5797 5794 5791 5788 5784 5780 5776 5772 5768 5764 5759 5755 5750 5746 5741 5736 5731 5725 5720 5714 5708 5702 5695 5687 5680 5673 5665 5657 5650 5642 5635 5627 5619 5611 5602 5594 5586 5577 5568 5559 5552 5547 5540 5532 5522 5514 5505 5497 5487 5476 5465 5455 5446 5438 5428 5418 5408 5397 5387
5842 5842 5841 5841 5841 5840 5839 5838 5837 5836 5835 5834 5832 5831 5829 5828 5826 5824 5823 5821 5818 5816 5813 5810 5808 5805 5802 5799 5796 5792 5789 5786 5782 5778 5774 5770 5766 5762 5757 5753 5749 5744 5740 5735 5729 5724 5718 5712 5705 5699 5692 5685 5678 5670 5663 5655 5647 5639 5632 5624 5616 5607 5599 5590 5583 5575 5566 5557 5548 5540 5533 5527 5519 5511 5501 5492 5481 5471 5462 5452 5443 5435 5426 5414 5403 5391 5380
5840 5840 5840 5839 5839 5838 5837 5837 5836 5835 5833 5832 5831 5829 5828 5827 5825 5823 5821 5819 5817 5815 5812 5809 5806 5803 5800 5797 5794 5790 5788 5784 5781 5777 5773 5768 5764 5760 5755 5751 5747 5742 5737 5733 5727 5721 5715 5709 5703 5696 5690 5683 5675 5668 5660 5652 5645 5637 5629 5621 5613 5605 5597 5589 5581 5573 5564 5555 5546 5537 5529 5522 5514 5506 5497 5488 5479 5470 5460 5450 5439 5428 5418 5407 5395 5383 5373
5838 5838 5838 5838 5837 5836 5836 5835 5834 5833 5832 5831 5829 5828 5826 5825 5824 5822 5820 5818 5815 5813 5810 5807 5804 5801 5798 5795 5792 5789 5786 5783 5779 5775 5771 5766 5762 5758 5754 5749 5745 5740 5735 5730 5725 5719 5713 5706 5700 5693 5687 5680 5672 5665 5656 5648 5641 5633 5625 5617 5609 5601 5593 5585 5576 5569 5560 5551 5543 5535 5526 5518 5510 5502 5494 5485 5475 5464 5453 5442 5431 5421 5411 5402 5392 5381 5371
5837 5836 5836 5836 5835 5835 5834 5834 5833 5832 5830 5829 5828 5827 5825 5824 5822 5820 5818 5816 5813 5811 5808 5805 5802 5799 5796 5793 5790 5787 5784 5781 5777 5773 5769 5764 5760 5756 5752 5747 5743 5738 5734 5728 5722 5716 5710 5704 5697 5690 5683 5676 5669 5661 5653 5645 5637 5629 5621 5613 5605 5597 5588 5580 5572 5564 5557 5548 5539 5531 5523 5515 5506 5497 5489 5479 5468 5457 5447 5437 5427 5417 5407 5397 5386 5374 5364
5835 5835 5834 5834 5834 5833 5833 5832 5831 5830 5829 5828 5826 5825 5823 5822 5820 5819 5817 5814 5812 5809 5806 5803 5800 5797 5794 5791 5789 5786 5782 5778 5775 5771 5767 5763 5758 5754 5750 5746 5741 5736 5731 5726 5720 5714 5708 5701 5694 5687 5680 5673 5666 5658 5650 5642 5634 5626 5618 5610 5602 5594 5585 5577 5568 5561 5554 5546 5537 5529 5522 5514 5505 5495 5486 5477 5467 5456 5444 5433 5423 5412 5400 5389 5377 5365 5354
5833 5833 5833 5832 5832 5832 5831 5830 5829 5828 5827 5826 5825 5823 5822 5820 5819 5817 5815 5812 5810 5807 5804 5801 5798 5795 5792 5789 5787 5784 5780 5776 5773 5769 5765 5761 5756 5752 5748 5743 5739 5734 5729 5723 5718 5712 5706 5699 5692 5685 5678 5671 5664 5656 5648 5640 5631 5623 5615 5607 5599 5591 5582 5573 5564 5555 5548 5540 5532 5524 5516 5509 5502 5494 5485 5476 5466 5454 5441 5429 5417 5406 5394 5382 5369 5358 5348
5832 5831 5831 5831 5830 5830 5829 5828 5828 5827 5826 5824 5823 5822 5820 5819 5817 5815 5813 5810 5808 5805 5802 5799 5797 5794 5791 5788 5785 5781 5778 5775 5771 5767 5763 5759 5754 5750 5746 5741 5736 5731 5726 5721 5715 5709 5703 5697 5690 5683 5676 5669 5661 5653 5645 5637 5629 5620 5612 5604 5596 5587 5579 5570 5560 5551 5542 5533 5524 5516 5507 5498 5490 5483 5476 5468 5458 5448 5436 5423 5411 5399 5387 5375 5363 5352 5342
5830 5830 5830 5829 5829 5828 5827 5827 5826 5825 5824 5823 5822 5820 5819 5817 5815 5813 5811 5808 5806 5803 5800 5798 5795 5792 5789 5786 5782 5779 5776 5772 5769 5765 5761 5757 5752 5748 5743 5739 5734 5729 5724 5718 5712 5706 5700 5694 5687 5680 5672 5665 5658 5650 5642 5634 5626 5617 5609 5600 5592 5584 5575 5566 5557 5548 5539 5530 5521 5511 5502 5493 5483 5475 5467 5458 5448 5438 5427 5416 5404 5393 5380 5368 5358 5347 5337
5829 5828 5828 5827 5827 5826 5825 5825 5824 5823 5822 5821 5820 5819 5817 5815 5813 5811 5809 5806 5803 5801 5799 5796 5793 5790 5787 5783 5780 5777 5773 5770 5767 5763 5758 5755 5750 5745 5741 5736 5731 5726 5721 5715 5709 5703 5697 5691 5684 5677 5669 5661 5654 5646 5639 5631 5623 5615 5606 5597 5589 5580 5572 5563 5553 5544 5535 5526 5517 5508 5498 5489 5480 5470 5461 5451 5441 5431 5420 5408 5397 5387 5375 5364 5353 5342 5333
5827 5827 5826 5826 5825 5824 5824 5823 5822 5822 5821 5820 5818 5817 5815 5814 5811 5809 5807 5804 5801 5799 5796 5794 5791 5788 5785 5781 5778 5774 5771 5768 5764 5761 5756 5752 5748 5743 5738 5733 5728 5723 5717 5712 5707 5701 5694 5687 5680 5673 5666 5659 5651 5643 5635 5627 5619 5612 5603 5594 5585 5577 5568 5559 5550 5541 5531 5522 5513 5504 5495 5486 5477 5467 5456 5446 5436 5426 5416 5404 5392 5381 5371 5360 5349 5338 5328
5825 5825 5825 5824 5823 5823 5822 5821 5821 5820 5819 5818 5817 5815 5814 5812 5810 5807 5804 5802 5799 5797 5794 5791 5788 5785 5782 5779 5775 5772 5768 5765 5762 5758 5754 5750 5746 5741 5736 5731 5726 5720 5714 5709 5704 5698 5691 5684 5677 5670 5663 5656 5648 5640 5632 5624 5616 5609 5600 5591 5582 5574 5565 5556 5547 5539 5530 5520 5510 5501 5492 5483 5475 5465 5454 5443 5432 5422 5413 5403 5391 5379 5368 5357 5347 5336 5324
5824 5823 5823 5822 5822 5821 5820 5820 5819 5818 5817 5816 5815 5813 5811 5809 5807 5805 5802 5799 5797 5794 5792 5789 5786 5783 5780 5777 5773 5770 5766 5763 5760 5756 5752 5748 5743 5739 5734 5728 5723 5718 5712 5707 5701 5695 5688 5682 5674 5667 5660 5653 5645 5637 5630 5622 5614 5606 5598 5589 5580 5571 5562 5554 5545 5536 5528 5518 5509 5500 5491 5482 5473 5464 5453 5442 5430 5418 5408 5399 5389 5377 5366 5355 5345 5334 5322
5822 5822 5821 5820 5820 5819 5819 5818 5817 5816 5815 5814 5812 5811 5809 5807 5805 5803 5800 5797 5794 5792 5789 5786 5783 5780 5778 5775 5771 5767 5764 5760 5757 5753 5750 5745 5741 5736 5731 5726 5721 5715 5710 5704 5698 5692 5686 5679 5672 5664 5657 5650 5642 5634 5626 5618 5610 5602 5595 5587 5578 5569 5560 5551 5542 5533 5525 5516 5506 5497 5489 5479 5470 5460 5451 5440 5427 5415 5403 5393 5383 5372 5361 5351 5341 5332 5322
5820 5820 5819 5819 5818 5818 5817 5816 5815 5814 5813 5812 5810 5808 5807 5805 5803 5800 5797 5795 5792 5790 5787 5784 5781 5778 5776 5772 5769 5765 5762 5758 5754 5751 5747 5743 5738 5734 5729 5724 5719 5713 5707 5701 5695 5688 5682 5675 5668 5661 5654 5646 5639 5631 5622 5614 5607 5599 5591 5583 5574 5566 5557 5548 5539 5530 5522 5513 5504 5494 5486 5476 5466 5456 5447 5436 5424 5412 5400 5389 5378 5368 5357 5346 5337 5328 5319
5819 5818 5818 5817 5816 5816 5815 5814 5813 5812 5811 5809 5808 5806 5804 5802 5800 5798 5795 5792 5790 5787 5785 5782 5779 5776 5774 5770 5767 5763 5760 5756 5752 5748 5744 5740 5736 5731 5726 5721 5716 5709 5703 5697 5692 5686 5679 5672 5665 5658 5651 5643 5635 5628 5620 5611 5603 5595 5587 5579 5571 5562 5553 5545 5536 5528 5519 5510 5501 5492 5483 5473 5464 5454 5444 5434 5422 5409 5397 5386 5375 5365 5354 5344 5334 5325 5316
5817 5816 5816 5815 5815 5814 5813 5812 5811 5810 5808 5807 5805 5804 5802 5800 5798 5795 5793 5790 5787 5785 5782 5779 5777 5774 5771 5768 5765 5761 5757 5753 5750 5746 5742 5738 5733 5729 5724 5718 5712 5707 5701 5694 5688 5682 5676 5669 5662 5655 5647 5640 5632 5624 5616 5608 5600 5592 5585 5576 5568 5560 5551 5542 5533 5525 5516 5507 5498 5488 5479 5470 5461 5452 5442 5433 5421 5409 5396 5383 5372 5361 5350 5340 5331 5322 5313
5815 5814 5814 5813 5813 5812 5811 5810 5809 5808 5806 5805 5803 5801 5799 5797 5795 5793 5790 5788 5785 5783 5780 5777 5774 5772 5769 5766 5762 5759 5755 5751 5747 5743 5739 5735 5730 5726 5721 5715 5709 5704 5698 5692 5686 5679 5673 5666 5659 5652 5644 5636 5628 5621 5613 5604 5596 5589 5581 5573 5565 5557 5548 5539 5530 5521 5512 5503 5494 5485 5476 5467 5458 5449 5440 5431 5420 5407 5393 5380 5368 5357 5347 5337 5327 5319 5310
5813 5812 5812 5811 5811 5810 5809 5808 5807 5805 5804 5803 5801 5799 5797 5795 5793 5791 5788 5785 5783 5780 5777 5775 5772 5770 5766 5763 5760 5756 5753 5749 5745 5740 5736 5732 5727 5723 5718 5712 5706 5701 5695 5689 5682 5676 5670 5663 5656 5649 5641 5633 5625 5618 5610 5601 5593 5585 5578 5570 5561 5553 5544 5535 5527 5518 5509 5500 5491 5482 5472 5463 5454 5444 5435 5426 5415 5405 5393 5380 5367 5357 5347 5337 5327 5318 5309
5811 5810 5810 5809 5809 5808 5807 5806 5804 5803 5801 5800 5798 5796 5794 5792 5790 5788 5786 5783 5780 5777 5774 5772 5769 5767 5764 5761 5757 5754 5750 5747 5743 5738 5733 5729 5725 5720 5714 5709 5703 5698 5692 5686 5680 5673 5667 5660 5653 5646 5638 5631 5623 5615 5607 5598 5590 5582 5574 5566 5558 5550 5542 5533 5525 5516 5507 5498 5488 5479 5470 5461 5451 5441 5430 5420 5410 5402 5394 5383 5372 5360 5349 5338 5327 5317 5307
5809 5808 5808 5807 5807 5806 5804 5803 5802 5800 5799 5797 5795 5793 5792 5790 5788 5786 5784 5781 5778 5775 5772 5769 5766 5764 5761 5757 5754 5751 5748 5744 5740 5735 5731 5726 5722 5717 5712 5706 5701 5695 5689 5683 5677 5670 5663 5657 5650 5642 5635 5628 5620 5612 5604 5596 5587 5579 5571 5563 5555 5547 5539 5531 5523 5515 5506 5496 5487 5477 5468 5459 5449 5439 5429 5418 5408 5399 5390 5381 5370 5359 5348 5337 5326 5316 5306